#timestamp,LO_Frequency,Hit,StdDev 
1663624815.2,286047009.5,N
1663624835.0,286047016.6,Y
1663624836.0,286047016.6,P
1663624855.8,286047004.3,N
1663624875.6,286047001.4,N
1663624895.5,286047002.3,N
1663624915.3,286046996.9,N
1663624935.1,286046993.8,N
1663624955.9,286046997.5,N
1663624975.7,286046993.8,N
1663624995.6,286046992.3,N
1663625015.4,286046991.7,N
1663625035.2,286046993.1,N
1663625055.1,286046989.5,N
1663625056.0,286046989.5,N
1663625075.8,286046992.2,N
1663625095.6,286046994.7,N
1663625115.5,286046990.8,N
1663625135.3,286046997.2,N
1663625155.2,286046996.7,N
1663625175.9,286046993.6,N
1663625195.7,286046995.3,N
1663625215.6,286046991.8,N
1663625235.4,286046990.5,N
1663625255.2,286046990.4,N
1663625275.1,286046995.5,N
1663625276.0,286046995.5,N
1663625295.8,286047002.6,N
1663625315.7,286047000.8,N
1663625335.5,286046998.6,N
1663625355.3,286046994.3,N
1663625375.2,286046994.6,N
1663625395.0,286046992.6,N
1663625395.9,286046992.6,N
1663625415.7,286046999.4,N
1663625435.6,286046995.2,N
1663625455.4,286047000.3,N
1663625475.3,286047008.4,N
1663625495.1,286047007.0,N
1663625496.0,286047007.0,N
1663625515.8,286047000.5,N
1663625535.7,286046997.7,N
1663625555.5,286046997.5,N
1663625575.3,286046994.9,N
1663625595.2,286046999.2,N
1663625615.0,286046997.2,N
1663625615.9,286046997.2,N
1663625635.8,286047002.4,N
1663625655.6,286047002.5,N
1663625675.4,286046997.7,N
1663625695.3,286046994.4,N
1663625715.1,286046993.5,N
1663625735.8,286046992.8,N
1663625755.7,286046993.1,N
1663625775.5,286046995.9,N
1663625795.4,286046998.9,N
1663625815.2,286046995.9,N
1663625835.0,286046991.7,N
1663625836.0,286046991.7,N
1663625855.8,286046994.5,N
1663625875.6,286046992.3,N
1663625895.5,286046993.7,N
1663625915.3,286046999.3,N
1663625935.1,286047003.4,N
1663625955.9,286047013.8,Y
1663625975.7,286047014.5,P
1663625995.6,286047020.9,N
1663626015.4,286047018.3,N
1663626035.3,286047017.0,N
1663626055.1,286047016.9,N
1663626075.8,286047013.7,N
1663626095.7,286047018.3,N
1663626115.5,286047019.3,N
1663626135.3,286047019.3,N
1663626155.2,286047013.5,N
1663626175.0,286047011.1,N
1663626175.9,286047011.1,N
1663626195.8,286047014.4,N
1663626215.6,286047010.2,N
1663626235.4,286047013.3,N
1663626255.3,286047014.8,N
1663626275.1,286047011.7,N
1663626295.8,286047018.0,Y
1663626315.7,286047004.7,P
1663626335.5,286047004.1,N
1663626355.4,286047000.4,N
1663626375.2,286046997.9,N
1663626395.1,286046998.8,N
1663626396.0,286046998.8,N
1663626415.8,286047007.4,N
1663626435.6,286047003.8,N
1663626455.5,286047006.6,N
1663626475.3,286047008.3,N
1663626495.2,286047011.4,N
1663626515.9,286047004.6,N
1663626535.7,286046997.9,N
1663626555.6,286046994.3,N
1663626575.4,286046994.0,N
1663626595.2,286046995.8,N
1663626615.1,286046994.2,N
1663626616.0,286046994.2,N
1663626635.8,286046999.2,N
1663626655.7,286046999.1,N
1663626675.5,286047007.1,N
1663626695.3,286047001.6,N
1663626715.2,286046995.5,N
1663626735.0,286046992.1,N
1663626735.9,286046992.1,N
1663626755.7,286046994.7,N
1663626775.6,286046994.5,N
1663626795.4,286046998.2,N
1663626815.3,286046999.7,N
1663626835.1,286046995.0,N
1663626836.0,286046995.0,N
1663626855.8,286047001.5,N
1663626875.7,286047008.6,N
1663626895.5,286047010.0,N
1663626915.3,286047008.9,N
1663626965.2,286046995.4,E
1663626975.1,286047001.7,N
1663626995.9,286047010.4,P
1663627015.7,286047009.1,N
1663627035.6,286047013.6,Y
1663627055.4,286047005.7,P
1663627075.2,286047006.0,P
1663627095.1,286047003.0,P
1663627096.0,286047003.0,N
1663627115.8,286047003.3,N
1663627135.6,286047002.6,N
1663627155.5,286047007.6,Y
1663627175.3,286047005.9,P
1663627195.2,286047006.6,P
1663627215.9,286047007.8,P
1663627235.7,286047006.3,Y
1663627255.6,286047000.1,P
1663627275.4,286046993.9,N
1663627295.2,286046991.4,N
1663627315.1,286046994.3,N
1663627316.0,286046994.3,N
1663627335.8,286046998.0,N
1663627355.7,286046991.6,N
1663627375.5,286046984.8,Y
1663627395.3,286046988.7,P
1663627415.2,286046981.2,P
1663627435.0,286046982.4,N
1663627435.9,286046982.4,N
1663627455.7,286046979.0,Y
1663627475.6,286046995.8,P
1663627495.4,286047003.9,N
1663627515.3,286047006.6,N
1663627535.1,286047012.7,N
1663627536.0,286047012.7,N
1663627555.8,286047018.0,N
1663627575.7,286047011.8,N
1663627595.5,286047007.6,N
1663627615.3,286047005.8,N
1663627635.2,286047003.5,N
1663627655.0,286047006.2,N
1663627655.9,286047006.2,N
1663627675.8,286047015.4,N
1663627695.6,286047016.4,N
1663627715.4,286047018.1,N
1663627765.3,286047017.2,E
1663627775.2,286047005.3,N
1663627795.1,286046992.3,P
1663627796.0,286046992.3,N
1663627815.8,286046992.1,N
1663627835.6,286046993.1,N
1663627855.5,286046996.4,N
1663627875.3,286046995.7,N
1663627895.1,286046986.9,N
1663627915.9,286046986.8,N
1663627935.7,286046991.5,N
1663627955.6,286046992.8,N
1663627975.4,286046986.0,N
1663627995.2,286046989.8,N
1663628015.1,286046995.6,N
1663628016.0,286046995.6,N
1663628035.8,286047002.5,N
1663628055.6,286047004.1,N
1663628075.5,286046993.4,N
1663628095.3,286046994.3,N
1663628115.2,286046998.4,N
1663628135.9,286046996.8,N
1663628155.7,286047011.9,N
1663628175.6,286047000.4,N
1663628195.4,286046996.2,N
1663628215.2,286047001.9,N
1663628235.1,286047007.4,N
1663628236.0,286047007.4,N
1663628255.8,286047005.4,N
1663628275.7,286046997.8,N
1663628295.5,286047001.2,N
1663628315.3,286047000.4,N
1663628335.2,286046995.2,N
1663628355.9,286046991.3,N
1663628375.8,286046993.2,N
1663628395.6,286046990.8,N
